MM0ZFG-5 Weather Reports


Display with metric or nautical units.
time (UTC)temp
F
wind
direction
speed
MPH
gust
MPH
rain 1hr
in
rain 24hr
in
rain mn
in
humidity
%
barometer
mb
20260508020903 46 227 1.0 3.0 0.00 0.04 0.00 93 1008.9
20260508020004 47 212 1.0 2.0 0.00 0.04 0.00 93 1008.6
20260508015403 47 228 1.0 4.0 0.00 0.04 0.00 93 1008.7
20260508014504 47 231 1.0 4.0 0.00 0.04 0.00 93 1008.6
20260508013604 47 244 0.0 3.0 0.00 0.04 0.00 93 1008.8
20260508012704 47 240 1.0 4.0 0.00 0.04 0.00 93 1008.7
20260508011803 47 232 2.0 6.0 0.00 0.04 0.00 93 1008.5
20260508010903 47 220 3.0 8.0 0.00 0.04 0.00 93 1008.5
20260508010003 47 218 3.0 7.0 0.00 0.04 0.00 94 1008.5
20260508005424 47 224 3.0 7.0 0.00 0.04 0.00 94 1008.4
20260508004503 47 215 3.0 7.0 0.00 0.04 0.00 94 1008.3
20260508003605 47 229 3.0 6.0 0.00 0.04 0.00 94 1008.3
20260508002703 47 219 4.0 7.0 0.00 0.04 0.00 94 1008.3
20260508001804 47 220 4.0 8.0 0.00 0.04 0.00 94 1008.4
20260508000904 47 219 3.0 7.0 0.00 0.04 0.00 94 1008.4
20260508000004 47 207 2.0 3.0 0.00 0.04 0.00 93 1008.4
20260507235426 47 202 3.0 3.0 0.00 0.04 0.00 93 1008.3
20260507234505 47 199 3.0 4.0 0.00 0.04 0.00 93 1008.3
20260507233603 47 203 4.0 7.0 0.00 0.04 0.00 93 1008.3
20260507232705 47 229 5.0 8.0 0.01 0.04 0.00 94 1008.2
20260507231803 47 222 5.0 10.0 0.01 0.04 0.00 93 1008.2
20260507230904 47 205 5.0 9.0 0.03 0.04 0.00 92 1008.4
20260507230004 47 200 5.0 7.0 0.04 0.04 0.00 92 1008.2
20260507225425 47 200 4.0 7.0 0.04 0.04 0.04 92 1008.1
20260507224504 47 204 5.0 8.0 0.04 0.04 0.04 92 1008.0
20260507223604 47 204 6.0 11.0 0.04 0.04 0.04 93 1008.0
20260507222704 47 213 9.0 15.0 0.03 0.03 0.03 92 1008.1
20260507221805 47 225 9.0 15.0 0.03 0.03 0.03 92 1008.1
20260507220903 47 218 7.0 13.0 0.01 0.01 0.01 90 1008.1
20260507220025 48 206 7.0 13.0 0.00 0.00 0.01 90 1007.9
20260507215404 48 211 6.0 11.0 0.00 0.00 0.00 89 1007.9
20260507214504 48 213 7.0 14.0 0.00 0.00 0.00 89 1007.9
20260507213603 48 209 5.0 10.0 0.00 0.00 0.00 89 1007.9
20260507212703 48 222 6.0 10.0 0.00 0.00 0.00 89 1007.8
20260507211803 48 217 7.0 11.0 0.00 0.00 0.00 89 1007.7
20260507210903 48 216 7.0 11.0 0.00 0.00 0.00 90 1008.0
20260507210004 48 212 7.0 13.0 0.00 0.00 0.00 90 1007.9
20260507205424 48 211 7.0 14.0 0.00 0.00 0.00 90 1007.9
20260507204504 48 215 7.0 14.0 0.00 0.00 0.00 90 1007.8
20260507203605 48 204 6.0 10.0 0.00 0.00 0.00 89 1007.7
20260507202703 48 207 8.0 13.0 0.00 0.00 0.00 89 1007.9
20260507201805 48 201 8.0 17.0 0.00 0.00 0.00 88 1007.7
20260507200904 48 211 10.0 17.0 0.00 0.00 0.00 88 1007.7
20260507200027 49 217 10.0 17.0 0.00 0.00 0.00 88 1007.6
20260507195403 49 220 9.0 15.0 0.00 0.00 0.00 87 1007.6
20260507194503 49 225 8.0 15.0 0.00 0.00 0.00 85 1007.4
20260507193603 49 213 9.0 15.0 0.00 0.00 0.00 85 1007.5
20260507192726 49 221 10.0 16.0 0.00 0.00 0.00 84 1007.5
20260507191804 49 217 9.0 15.0 0.00 0.00 0.00 83 1007.4
20260507190903 49 222 9.0 14.0 0.00 0.00 0.00 82 1007.2
20260507190005 49 217 8.0 15.0 0.00 0.00 0.00 82 1007.3
20260507185403 49 211 9.0 15.0 0.00 0.00 0.00 81 1007.3
20260507184504 49 213 9.0 14.0 0.00 0.00 0.00 81 1007.2
20260507183604 50 211 9.0 17.0 0.00 0.00 0.00 80 1007.2
20260507182705 50 207 8.0 14.0 0.00 0.00 0.00 78 1007.5
20260507181803 51 207 9.0 15.0 0.00 0.00 0.00 75 1007.3
20260507180925 51 206 8.0 13.0 0.00 0.00 0.00 73 1007.3
20260507180004 52 208 8.0 14.0 0.00 0.00 0.00 70 1007.2
20260507175404 53 203 7.0 13.0 0.00 0.00 0.00 69 1007.3
20260507174504 53 198 6.0 9.0 0.00 0.00 0.00 71 1007.1
20260507173603 53 196 7.0 15.0 0.00 0.00 0.00 71 1007.5
20260507172703 53 211 8.0 15.0 0.00 0.00 0.00 70 1007.3
20260507171804 52 221 8.0 14.0 0.00 0.00 0.00 70 1007.5
20260507170925 53 220 8.0 15.0 0.00 0.00 0.00 70 1007.4
20260507170005 51 221 9.0 15.0 0.00 0.00 0.00 73 1007.4
20260507165403 51 213 9.0 15.0 0.00 0.00 0.00 71 1007.4
20260507164503 53 206 10.0 16.0 0.00 0.00 0.00 69 1007.4
20260507163603 54 210 10.0 18.0 0.00 0.00 0.00 63 1007.4
20260507162703 55 185 10.0 17.0 0.00 0.00 0.00 61 1007.4
20260507161803 56 207 10.0 19.0 0.00 0.00 0.00 62 1007.4
20260507160903 54 215 9.0 19.0 0.00 0.00 0.00 64 1007.3
20260507160004 54 210 9.0 15.0 0.00 0.00 0.00 66 1007.5
20260507155424 53 198 9.0 18.0 0.00 0.00 0.00 66 1007.4
20260507154504 53 195 9.0 15.0 0.00 0.00 0.00 68 1007.5
20260507153603 53 194 10.0 14.0 0.00 0.00 0.00 67 1007.4
20260507152704 54 197 10.0 17.0 0.00 0.00 0.00 66 1007.2
20260507151824 54 203 10.0 17.0 0.00 0.00 0.00 66 1007.4
20260507150903 55 205 10.0 17.0 0.00 0.00 0.00 65 1007.4
20260507150024 55 199 11.0 18.0 0.00 0.00 0.00 64 1007.5
20260507145424 56 202 10.0 18.0 0.00 0.00 0.00 63 1007.4
20260507144504 56 208 10.0 19.0 0.00 0.00 0.00 64 1007.5
20260507143625 58 197 9.0 14.0 0.00 0.00 0.00 63 1007.5
20260507142704 58 216 9.0 15.0 0.00 0.00 0.00 63 1007.6
20260507141803 58 185 8.0 15.0 0.00 0.00 0.00 63 1007.6
20260507140905 59 191 8.0 11.0 0.00 0.00 0.00 63 1007.6
20260507140006 60 189 8.0 13.0 0.00 0.00 0.00 61 1007.5
20260507135403 59 194 9.0 13.0 0.00 0.00 0.00 60 1007.6
20260507134504 58 198 9.0 15.0 0.00 0.00 0.00 63 1007.6
20260507133604 58 214 8.0 14.0 0.00 0.00 0.00 64 1007.8
20260507132725 58 205 8.0 14.0 0.00 0.00 0.00 65 1007.9
20260507131803 58 201 9.0 18.0 0.00 0.00 0.00 66 1007.9
20260507130903 58 200 9.0 18.0 0.00 0.00 0.00 65 1007.9
20260507130004 58 203 8.0 15.0 0.00 0.00 0.00 64 1008.1
20260507125424 59 204 8.0 13.0 0.00 0.00 0.00 64 1008.1
20260507124503 58 199 9.0 14.0 0.00 0.00 0.00 64 1008.1
20260507123603 58 207 8.0 13.0 0.00 0.00 0.00 64 1008.0
20260507122724 57 201 8.0 19.0 0.00 0.00 0.00 65 1007.9
20260507121805 56 192 9.0 19.0 0.00 0.00 0.00 65 1008.2
20260507120924 55 195 9.0 16.0 0.00 0.00 0.00 62 1008.0
20260507120025 56 207 9.0 14.0 0.00 0.00 0.00 64 1008.0
20260507115404 55 204 9.0 15.0 0.00 0.00 0.00 68 1008.2
20260507114503 54 191 8.0 14.0 0.00 0.00 0.00 72 1008.3
20260507113604 52 180 6.0 10.0 0.00 0.00 0.00 75 1008.3
20260507112704 51 185 7.0 11.0 0.00 0.00 0.00 77 1008.2
20260507111804 51 193 7.0 14.0 0.00 0.00 0.00 78 1008.3
20260507110903 51 195 7.0 10.0 0.00 0.00 0.00 80 1008.3
20260507110003 51 180 7.0 11.0 0.00 0.00 0.00 78 1008.3
20260507105403 51 183 7.0 11.0 0.00 0.00 0.00 79 1008.3
20260507104526 50 190 7.0 11.0 0.00 0.00 0.00 79 1008.3
20260507103603 50 209 8.0 13.0 0.00 0.00 0.00 80 1008.3
20260507102703 50 188 6.0 10.0 0.00 0.00 0.00 82 1008.3
20260507101825 50 188 6.0 11.0 0.00 0.00 0.00 82 1008.1
20260507100925 50 182 6.0 10.0 0.00 0.00 0.00 83 1008.2
20260507100005 49 197 6.0 9.0 0.00 0.00 0.00 85 1008.3
20260507095404 49 184 7.0 9.0 0.00 0.00 0.00 85 1008.3
20260507094505 49 189 6.0 13.0 0.00 0.00 0.00 86 1008.1
20260507093603 48 190 5.0 9.0 0.00 0.00 0.00 87 1008.2
20260507092703 48 174 4.0 8.0 0.00 0.00 0.00 87 1008.1
20260507091803 47 186 4.0 8.0 0.00 0.00 0.00 87 1008.1
20260507090904 47 179 3.0 7.0 0.00 0.00 0.00 86 1008.2
20260507090004 47 182 4.0 7.0 0.00 0.00 0.00 85 1008.2
20260507085403 47 192 4.0 8.0 0.00 0.00 0.00 84 1008.2
20260507084504 47 195 3.0 7.0 0.00 0.00 0.00 83 1008.3
20260507083603 46 189 3.0 8.0 0.00 0.00 0.00 83 1008.4
20260507082703 46 185 2.0 4.0 0.00 0.00 0.00 83 1008.3
20260507081804 46 88 3.0 6.0 0.00 0.00 0.00 82 1008.2
20260507080924 46 88 4.0 13.0 0.00 0.00 0.00 81 1008.5
20260507080004 46 80 2.0 7.0 0.00 0.00 0.00 81 1008.2
20260507075403 46 79 2.0 7.0 0.00 0.00 0.00 80 1008.5
20260507074503 46 91 2.0 7.0 0.00 0.00 0.00 81 1008.5
20260507073603 46 94 3.0 8.0 0.00 0.00 0.00 81 1008.4
20260507072724 46 76 4.0 10.0 0.00 0.00 0.00 80 1008.4
20260507071805 46 69 4.0 13.0 0.00 0.00 0.00 80 1008.5
20260507070903 46 96 2.0 6.0 0.00 0.00 0.00 80 1008.3
20260507070005 46 82 3.0 10.0 0.00 0.00 0.00 80 1008.4
20260507065405 45 75 3.0 10.0 0.00 0.00 0.00 79 1008.4
20260507064503 45 87 2.0 4.0 0.00 0.00 0.00 80 1008.5
20260507063603 45 90 2.0 6.0 0.00 0.00 0.00 80 1008.5
20260507062703 45 82 2.0 7.0 0.00 0.00 0.00 79 1008.7
20260507061803 45 79 3.0 7.0 0.00 0.00 0.00 79 1008.6
20260507060903 45 83 3.0 7.0 0.00 0.00 0.00 79 1008.5
20260507060003 45 89 2.0 7.0 0.00 0.00 0.00 79 1008.6
20260507055403 45 87 2.0 6.0 0.00 0.00 0.00 79 1008.6
20260507054503 44 103 2.0 6.0 0.00 0.00 0.00 79 1008.6
20260507053603 44 83 2.0 6.0 0.00 0.00 0.00 79 1008.4
20260507052703 44 69 2.0 7.0 0.00 0.00 0.00 78 1008.5
20260507051804 44 67 3.0 8.0 0.00 0.00 0.00 78 1008.5
20260507050903 44 68 3.0 8.0 0.00 0.00 0.00 78 1008.7
20260507050005 44 64 3.0 7.0 0.00 0.00 0.00 78 1008.6
20260507045404 44 63 2.0 6.0 0.00 0.00 0.00 78 1008.6
20260507044503 44 73 2.0 6.0 0.00 0.00 0.00 77 1008.6
20260507043603 44 63 3.0 7.0 0.00 0.00 0.00 77 1008.7
20260507042704 44 65 2.0 7.0 0.00 0.00 0.00 76 1008.7
20260507041804 44 51 2.0 4.0 0.00 0.00 0.00 76 1008.6
20260507040925 44 53 3.0 7.0 0.00 0.00 0.00 76 1008.9
20260507040004 44 61 3.0 7.0 0.00 0.00 0.00 75 1008.7
20260507035425 44 66 4.0 9.0 0.00 0.00 0.00 75 1008.6
20260507034503 44 47 3.0 7.0 0.00 0.00 0.00 74 1008.5
20260507033604 44 77 3.0 8.0 0.00 0.00 0.00 74 1008.9
20260507032703 44 78 3.0 8.0 0.00 0.00 0.00 74 1008.8
20260507031826 44 67 4.0 10.0 0.00 0.00 0.00 74 1008.8
20260507030904 44 81 3.0 8.0 0.00 0.00 0.00 73 1008.8
20260507030003 44 64 3.0 9.0 0.00 0.00 0.00 73 1009.0
20260507025425 44 64 3.0 9.0 0.00 0.00 0.00 73 1008.8
20260507024503 44 59 4.0 9.0 0.00 0.00 0.00 73 1009.1
20260507023603 45 66 3.0 9.0 0.00 0.00 0.00 73 1009.2
20260507022704 45 66 3.0 8.0 0.00 0.00 0.00 73 1009.2
20260507021827 45 79 4.0 9.0 0.00 0.00 0.00 73 1009.2